Date String (YYYY-MM-DD hh:mm:ss) UTC,Instrument flags,absolute air pressure of the measurement (hPa),sample flow rate (lpm),inlet stack bypass flow (lpm),air temperature of the measurement (°C),ambient temperature measured by the external sensor (°C),aerosol sample conditioner tube jacket temperature (°C),OPC LED temperature (°C),internal box temperature (°C),relative humidity of the measurement (%),span deviation,mass concentration of particles derived from Lorenz-Mie calculation of OPC scattering (μg/m³),mass concentration of particles derived from Lorenz-Mie calculation of OPC scattering (μg/m³),mass concentration of particles derived from Lorenz-Mie calculation of OPC scattering (μg/m³)
DateTimeUTC,F1_M11,P_M11,Q1_M11,Q2_M11,T1_M11,T2_M11,T3_M11,T4_M11,T5_M11,U1_M11,ZSPAN_M11,X0_M11,X2_M11,X1_M11
2023-11-21 04:00:00,SystemResetWarning,0840.7,5.01,000.00,023.2,022.3,000.0,031.5,024.4,14.7,0000.0,0005.35,0001.42,0001.17
2023-11-21 04:01:00,SystemResetWarning,0840.7,5.01,000.00,023.2,022.3,000.0,031.5,024.4,14.7,0000.0,0005.23,0001.39,0001.15
2023-11-21 04:02:00,SystemResetWarning,0840.7,5.00,000.00,023.2,022.3,000.0,031.5,024.4,14.7,0000.0,0005.07,0001.39,0001.13
2023-11-21 04:03:00,SystemResetWarning,0840.7,5.00,000.00,023.2,022.3,000.0,031.5,024.5,14.7,0000.0,0004.74,0001.38,0001.13
2023-11-21 04:04:00,SystemResetWarning,0840.7,5.00,000.00,023.2,022.2,000.0,031.5,024.5,14.7,0000.0,0005.24,0001.38,0001.13
2023-11-21 04:05:00,SystemResetWarning,0840.7,5.00,000.00,023.2,022.3,000.0,031.5,024.4,14.7,0000.0,0005.17,0001.38,0001.12
2023-11-21 04:06:00,SystemResetWarning,0840.7,5.00,000.00,023.2,022.3,000.0,031.5,024.4,14.7,0000.0,0004.66,0001.38,0001.12
2023-11-21 04:07:00,SystemResetWarning,0840.8,5.00,000.00,023.2,022.3,000.0,031.5,024.5,14.7,0000.0,0003.40,0001.39,0001.13
2023-11-21 04:08:00,SystemResetWarning,0840.8,5.01,000.00,023.2,022.2,000.0,031.5,024.4,14.7,0000.0,0003.38,0001.40,0001.15
2023-11-21 04:09:00,SystemResetWarning,0840.7,5.00,000.00,023.2,022.3,000.0,031.5,024.4,14.7,0000.0,0003.46,0001.42,0001.18
2023-11-21 04:10:00,SystemResetWarning,0840.7,5.00,000.00,023.2,022.2,000.0,031.5,024.4,14.7,0000.0,0003.96,0001.46,0001.19
2023-11-21 04:11:00,SystemResetWarning,0840.7,5.00,000.00,023.2,022.3,000.0,031.5,024.4,14.7,0000.0,0003.96,0001.49,0001.22
2023-11-21 04:12:00,SystemResetWarning,0840.7,5.00,000.00,023.2,022.2,000.0,031.5,024.4,14.7,0000.0,0004.01,0001.52,0001.22
2023-11-21 04:13:00,SystemResetWarning,0840.8,5.00,000.00,023.2,022.2,000.0,031.5,024.4,14.7,0000.0,0004.13,0001.53,0001.21
2023-11-21 04:14:00,SystemResetWarning,0840.8,5.00,000.00,023.2,022.2,000.0,031.5,024.4,14.7,0000.0,0004.10,0001.53,0001.21
2023-11-21 04:15:00,SystemResetWarning,0840.8,5.00,000.00,023.2,022.3,000.0,031.4,024.5,14.7,0000.0,0003.13,0001.51,0001.22
2023-11-21 04:16:00,SystemResetWarning,0840.9,5.00,000.00,023.2,022.3,000.0,031.5,024.5,14.7,0000.0,0002.92,0001.50,0001.22
2023-11-21 04:17:00,SystemResetWarning,0840.9,4.99,000.00,023.2,022.3,000.0,031.5,024.5,14.7,0000.0,0002.96,0001.48,0001.21
2023-11-21 04:18:00,SystemResetWarning,0840.9,5.00,000.00,023.2,022.3,000.0,031.5,024.4,14.7,0000.0,0003.02,0001.47,0001.21
2023-11-21 04:19:00,SystemResetWarning,0840.9,5.00,000.00,023.2,022.3,000.0,031.4,024.5,14.7,0000.0,0003.04,0001.46,0001.20
2023-11-21 04:20:00,SystemResetWarning,0841.0,5.00,000.00,023.2,022.3,000.0,031.5,024.4,14.7,0000.0,0003.01,0001.43,0001.18
2023-11-21 04:21:00,SystemResetWarning,0841.0,5.00,000.00,023.2,022.3,000.0,031.5,024.4,14.7,0000.0,0002.40,0001.37,0001.15
2023-11-21 04:22:00,SystemResetWarning,0841.0,5.00,000.00,023.2,022.3,000.0,031.5,024.4,14.7,0000.0,0002.26,0001.33,0001.14
2023-11-21 04:23:00,SystemResetWarning,0841.0,5.00,000.00,023.2,022.3,000.0,031.5,024.4,14.7,0000.0,0002.23,0001.31,0001.13
2023-11-21 04:24:00,SystemResetWarning,0841.1,5.00,000.00,023.2,022.3,000.0,031.5,024.4,14.7,0000.0,0002.15,0001.32,0001.14
2023-11-21 04:25:00,SystemResetWarning,0841.1,5.00,000.00,023.2,022.3,000.0,031.5,024.4,14.7,0000.0,0002.03,0001.30,0001.14
2023-11-21 04:26:00,SystemResetWarning,0841.1,5.00,000.00,023.2,022.3,000.0,031.4,024.4,14.7,0000.0,0002.06,0001.31,0001.14
2023-11-21 04:27:00,SystemResetWarning,0841.1,5.00,000.00,023.1,022.2,000.0,031.4,024.4,14.7,0000.0,0002.07,0001.35,0001.15
2023-11-21 04:28:00,SystemResetWarning,0841.1,5.00,000.00,023.1,022.2,000.0,031.4,024.3,14.7,0000.0,0002.11,0001.38,0001.16
2023-11-21 04:29:00,SystemResetWarning,0841.1,5.00,000.00,023.1,022.2,000.0,031.4,024.4,14.7,0000.0,0002.34,0001.40,0001.17
2023-11-21 04:30:00,SystemResetWarning,0841.1,5.00,000.00,023.1,022.2,000.0,031.4,024.4,14.7,0000.0,0002.35,0001.40,0001.17
2023-11-21 04:31:00,SystemResetWarning,0841.1,5.00,000.00,023.1,022.2,000.0,031.4,024.4,14.7,0000.0,0002.33,0001.39,0001.17
2023-11-21 04:32:00,SystemResetWarning,0841.1,5.00,000.00,023.1,022.2,000.0,031.4,024.4,14.8,0000.0,0002.43,0001.42,0001.17
2023-11-21 04:33:00,SystemResetWarning,0841.1,5.00,000.00,023.1,022.2,000.0,031.4,024.3,14.7,0000.0,0002.67,0001.43,0001.17
2023-11-21 04:34:00,SystemResetWarning,0841.1,5.00,000.00,023.1,022.1,000.0,031.4,024.3,14.7,0000.0,0004.50,0001.44,0001.17
2023-11-21 04:35:00,SystemResetWarning,0841.1,5.00,000.00,023.1,022.1,000.0,031.4,024.2,14.8,0000.0,0004.76,0001.44,0001.18
2023-11-21 04:36:00,SystemResetWarning,0841.1,5.01,000.00,023.0,022.1,000.0,031.4,024.2,14.8,0000.0,0005.54,0001.45,0001.19
2023-11-21 04:37:00,SystemResetWarning,0841.1,5.00,000.00,023.0,022.1,000.0,031.4,024.2,14.8,0000.0,0006.04,0001.45,0001.19
2023-11-21 04:38:00,SystemResetWarning,0841.2,4.99,000.00,023.0,022.0,000.0,031.4,024.2,14.8,0000.0,0005.94,0001.43,0001.19
2023-11-21 04:39:00,SystemResetWarning,0841.2,5.00,000.00,023.0,022.0,000.0,031.4,024.2,14.8,0000.0,0005.86,0001.41,0001.19
2023-11-21 04:40:00,SystemResetWarning,0841.2,5.00,000.00,023.0,022.0,000.0,031.4,024.2,14.9,0000.0,0005.65,0001.40,0001.18
2023-11-21 04:41:00,SystemResetWarning,0841.2,5.00,000.00,023.0,022.0,000.0,031.4,024.2,14.8,0000.0,0005.86,0001.41,0001.19
2023-11-21 04:42:00,SystemResetWarning,0841.2,5.00,000.00,023.0,022.0,000.0,031.4,024.2,14.8,0000.0,0006.32,0001.41,0001.18
2023-11-21 04:43:00,SystemResetWarning,0841.2,5.00,000.00,023.0,022.0,000.0,031.4,024.2,14.8,0000.0,0006.27,0001.40,0001.18
2023-11-21 04:44:00,SystemResetWarning,0841.2,5.00,000.00,023.0,022.0,000.0,031.3,024.2,14.8,0000.0,0006.18,0001.40,0001.19
2023-11-21 04:45:00,SystemResetWarning,0841.2,5.01,000.00,023.0,022.0,000.0,031.3,024.2,14.8,0000.0,0004.54,0001.42,0001.20
2023-11-21 04:46:00,SystemResetWarning,0841.2,5.00,000.00,023.0,022.0,000.0,031.3,024.2,14.9,0000.0,0003.99,0001.40,0001.19
2023-11-21 04:47:00,SystemResetWarning,0841.3,5.00,000.00,023.0,022.0,000.0,031.3,024.2,14.8,0000.0,0003.61,0001.37,0001.17
2023-11-21 04:48:00,SystemResetWarning,0841.3,5.00,000.00,023.0,022.1,000.0,031.3,024.2,14.8,0000.0,0002.67,0001.37,0001.16
2023-11-21 04:49:00,SystemResetWarning,0841.3,5.00,000.00,023.0,022.1,000.0,031.3,024.2,14.8,0000.0,0002.69,0001.37,0001.15
2023-11-21 04:50:00,SystemResetWarning,0841.3,5.00,000.00,023.0,022.1,000.0,031.3,024.3,14.8,0000.0,0002.74,0001.39,0001.13
2023-11-21 04:51:00,SystemResetWarning,0841.3,4.99,000.00,023.0,022.1,000.0,031.3,024.3,14.8,0000.0,0002.67,0001.37,0001.12
2023-11-21 04:52:00,SystemResetWarning,0841.3,5.00,000.00,023.0,022.1,000.0,031.3,024.2,14.8,0000.0,0002.41,0001.33,0001.10
2023-11-21 04:53:00,SystemResetWarning,0841.4,5.01,000.00,023.0,022.1,000.0,031.3,024.2,14.7,0000.0,0001.88,0001.33,0001.10
2023-11-21 04:54:00,SystemResetWarning,0841.4,5.01,000.00,023.0,022.1,000.0,031.3,024.2,14.8,0000.0,0001.86,0001.31,0001.08
2023-11-21 04:55:00,SystemResetWarning,0841.4,5.00,000.00,023.0,022.1,000.0,031.3,024.3,14.8,0000.0,0001.86,0001.31,0001.07
2023-11-21 04:56:00,SystemResetWarning,0841.4,5.01,000.00,023.0,022.1,000.0,031.3,024.2,14.8,0000.0,0001.78,0001.28,0001.06
2023-11-21 04:57:00,SystemResetWarning,0841.5,4.99,000.00,023.0,022.1,000.0,031.3,024.2,14.8,0000.0,0001.80,0001.29,0001.06
2023-11-21 04:58:00,SystemResetWarning,0841.4,4.99,000.00,023.0,022.1,000.0,031.3,024.2,14.8,0000.0,0001.87,0001.32,0001.06
2023-11-21 04:59:00,SystemResetWarning,0841.5,5.00,000.00,023.0,022.0,000.0,031.3,024.2,14.8,0000.0,0001.83,0001.31,0001.06
